Regional Weather Roundup
Issued by NWS Upton, NY

Current Version | Previous Version | Graphics & Text | Print | Product List | Glossary Off
Versions: 1 2 3 4 5 6 7 8 9 10 11 12 13 14 15 16 17 18 19 20 21 22 23 24 25 26 27

000
ASUS41 KOKX 281508
RWROKX

REGIONAL WEATHER ROUNDUP
NATIONAL WEATHER SERVICE NEW YORK NY
1100 AM EDT FRI APR 28 2017

NOTE: "FAIR" INDICATES FEW OR NO CLOUDS BELOW 12,000 FEET WITH NO
SIGNIFICANT WEATHER AND/OR OBSTRUCTIONS TO VISIBILITY.

NYZ071-072-176-178-NJZ106-104-281600-
NEW YORK CITY METRO AREA

CITY           SKY/WX    TMP DP  RH WIND       PRES   REMARKS
Central Park   SUNNY     70  61  73 CALM      30.01S HAZE
Wall St Helipt SUNNY     66  61  82 S5        30.01R
Bronx Bot Gard   N/A     70  59  68 S8        29.99F
LaGuardia APRT MOSUNNY   72  60  66 VRB6      29.98S HAZE
Kennedy INTL   MOSUNNY   68  61  78 S7        30.00R HAZE
Breezy Point     N/A     61 N/A N/A S3          N/A
Newark/Liberty MOSUNNY   72  61  68 SW5       29.98S
Teterboro      SUNNY     70  62  76 CALM      29.97S HAZE
$$

NYZ177-179-078>081-281600-
LONG ISLAND NEW YORK

CITY           SKY/WX    TMP DP  RH WIND       PRES   REMARKS
Jones Beach      N/A     57 N/A N/A S7          N/A
Matinecock PT  NOT AVBL
Farmingdale    PTSUNNY   69  62  78 SW6       30.00R
MacArthur/ISP  PTSUNNY   69  61  75 VRB5      30.00R
Shirley        PTSUNNY   68  60  75 S5        30.00R
Mt Sinai Harb    N/A     55 N/A N/A NW3         N/A
Westhampton    PTSUNNY   68  59  73 S8        30.02R
East Hampton     N/A     66  60  80 S3        29.99R
Montauk          N/A     64  58  80 W7        30.00
$$

NYZ052-065-067-281600-
HUDSON VALLEY

CITY           SKY/WX    TMP DP  RH WIND       PRES   REMARKS
White Plains   MOSUNNY   68  62  81 NW6       29.99R
Larchmont Harb   N/A     55 N/A N/A E3          N/A
Croton O-T Hud   N/A     64 N/A N/A S1          N/A
Newburgh       MOSUNNY   73  64  73 W7        29.98S
Montgomery     MOSUNNY   74  62  66 CALM      29.96S
Poughkeepsie   MOSUNNY   72  62  71 VRB5      29.96S
Albany         MOSUNNY   69  51  52 W14       29.99R
$$

NJZ001-105-106-008-010-013-015-019>022-104-281600-
NEW JERSEY

CITY           SKY/WX    TMP DP  RH WIND       PRES   REMARKS
Newark/Liberty MOSUNNY   72  61  68 SW5       29.98S
Teterboro      SUNNY     70  62  76 CALM      29.97S HAZE
Caldwell       SUNNY     71  62  73 SE6       29.98F
Somerville     SUNNY     76  59  55 VRB5      29.97R
Linden           N/A     73  61  65 CALM      29.99S
Perth Amboy      N/A     70 N/A N/A W9          N/A
Sussex         SUNNY     75  62  64 VRB5      29.98R
Andover          N/A     76  56  49 VRB5      29.98S
Trenton        SUNNY     77  59  53 W5        30.00R
Millville      SUNNY     80  57  45 NW9       30.01S
Atlantic City  SUNNY     81  58  45 CALM      30.01R
Wrightstown    SUNNY     79  55  44 NW7       29.98R
Toms River     SUNNY     79  58  48 NW8       30.01R
Belmar         MOSUNNY   79  56  45 W8        30.01R
$$

PAZ047>061-062-071-281600-
EASTERN PENNSYLVANIA

CITY           SKY/WX    TMP DP  RH WIND       PRES   REMARKS
Philadelphia   SUNNY     78  59  51 S9        30.01R
Allentown      SUNNY     76  50  40 W10G20    30.00R
Scranton       CLOUDY    71  57  61 NW6       30.00S
$$

CTZ002-004>006-009-010-012-RIZ004-006-007-MAZ004-011-015-281600-
SOUTHERN NEW ENGLAND
 IN CT

CITY           SKY/WX    TMP DP  RH WIND       PRES   REMARKS
Bradley INTL   CLOUDY    63  60  90 SE3       29.98S FOG
Hartford       CLOUDY    64  60  87 S5        29.98R
Danbury        MOSUNNY   67  63  87 SW5       29.99S
Wtrbury/Oxford PTSUNNY   64  59  82 CALM      30.01S
Bridgeport     CLOUDY    62  57  83 W6        29.99R
Meriden        CLOUDY    64  59  83 SE3       29.99R
New Haven      CLOUDY    59  57  93 W9        29.99R
Chester        CLOUDY    63  63 100 CALM      30.00R
Groton         PTSUNNY   58  57  97 S6        29.98R
Wilimantic     CLOUDY    65  61  87 CALM      29.99R

 IN RI

CITY           SKY/WX    TMP DP  RH WIND       PRES   REMARKS
Providence     PTSUNNY   60  59  96 SE3       29.98R
Block Island   PTSUNNY   60  55  83 SW13      29.99S
Westerly       CLOUDY    61  58  90 SW6       30.00R
 IN MA

CITY           SKY/WX    TMP DP  RH WIND       PRES   REMARKS
Boston         PTSUNNY   65  59  81 W8        29.96R
Worcester      CLOUDY    61  58  90 W9        29.98R
Westfield      PTSUNNY   67  61  81 CALM      29.97S
Provincetown   CLOUDY    57  57 100 SW12      29.98S FOG
Nantucket      FOG       55  54  96 S12       30.00R VSB 1/4
$$

ANZ330-335-338-340-345-350-353-355-281600-
COASTAL MARINE OBSERVATIONS


STATION/POSITION TIME  SKY/WX   TEMP    WIND        PRES    VSBY  WAVE
                                AIR SEA DIR/SP/G                  HT/PER
                 (UTC)          (F)     (DEG/KT/KT) (MB)    (MI)  (FT/S)
NY HARB ENTRANCE 1350            54 50  270/  2/  4 1015.5          4/ 9
20 S FIRE ISLAND 1450            52 48  250/  6/  8 1015.7          4/ 8
GREAT SOUTH BAY  1430            54 58  190/  8/ 10   N/A
23 SSW MONTAUK P 1350            50 47              1015.8          5/ 9
15 E BARNEGAT LI 1430               52                N/A           5/10
HUDSON CANYON    1350            54 49  220/ 14/ 16 1016.3          5/ 9
KINGS POINT      1448            58 50   50/  3/  4 1015.6
EXECUTION ROCKS  NOT AVBL
CENTRAL LI SOUND NOT AVBL
EASTERN LI SOUND NOT AVBL
ROBBINS REEF     1448            58     170/  8/  8 1015.9
$$


>>>>>>>>>>>>>>>>>>>>>>>>>>>> KEY <<<<<<<<<<<<<<<<<<<<<<<<<<<
>                                                          <
>     SKY/WX - Sky Condition/Present Weather               <
>     TMP    - Temperature in Fahrenheit                   <
>     DP     - Dew Point in Fahrenheit                     <
>     RH     - Relative Humidity in Percent                <
>     WIND   - Direction (from) and Speed in MPH           <
>     PRES   - Mean Sea Level Pressure (inches of Hg)      <
>     WCI    - Wind Chill Index                            <
>     VSB    - VISIBILITY IN MILES                         <
>     HX     - HEAT INDEX                                  <
>     TC     - TEMPERATURE IN CELSIUS                      <
>     VRB    - VARIABLE WIND DIRECTION                     <
>                                                          <
>>>>>>>>>>>>>>>>>>>>>>>>>>>> KEY <<<<<<<<<<<<<<<<<<<<<<<<<<<




USA.gov is the U.S. government's official web portal to all federal, state and local government web resources and services.